Time,TemperatureF,DewpointF,PressureIn,WindDirection,WindDirectionDegrees,WindSpeedMPH,WindSpeedGustMPH,Humidity,HourlyPrecipIn,Conditions,Clouds,dailyrainin,SoftwareType,DateUTC
2013-09-11 00:08:00,70.3,62.0,29.80,ESE,111,8.0,15.0,75,0.00,,,0.00,weatherlink.com 1.10,2013-09-11 05:08:00,
2013-09-11 00:23:00,70.1,63.0,29.80,ESE,119,5.0,13.0,78,0.00,,,0.00,weatherlink.com 1.10,2013-09-11 05:23:00,
2013-09-11 00:38:00,70.1,63.0,29.81,ESE,117,4.0,14.0,78,0.00,,,0.00,weatherlink.com 1.10,2013-09-11 05:38:00,
2013-09-11 00:53:00,70.2,63.0,29.81,ESE,112,9.0,14.0,78,0.00,,,0.00,weatherlink.com 1.10,2013-09-11 05:53:00,
2013-09-11 01:08:00,70.2,63.0,29.80,ESE,111,5.0,10.0,77,0.00,,,0.00,weatherlink.com 1.10,2013-09-11 06:08:00,
2013-09-11 01:23:00,70.1,63.0,29.80,ESE,107,3.0,5.0,78,0.00,,,0.00,weatherlink.com 1.10,2013-09-11 06:23:00,
2013-09-11 01:38:00,69.8,62.0,29.80,SE,137,3.0,10.0,77,0.00,,,0.00,weatherlink.com 1.10,2013-09-11 06:38:00,
2013-09-11 01:53:00,69.6,62.0,29.80,ESE,109,4.0,5.0,78,0.00,,,0.00,weatherlink.com 1.10,2013-09-11 06:53:00,
2013-09-11 02:08:00,69.3,63.0,29.80,ESE,113,0.0,5.0,79,0.00,,,0.00,weatherlink.com 1.10,2013-09-11 07:08:00,
2013-09-11 02:23:00,69.2,62.0,29.80,ESE,104,0.0,4.0,79,0.00,,,0.00,weatherlink.com 1.10,2013-09-11 07:23:00,
2013-09-11 02:38:00,69.0,62.0,29.80,SW,229,1.0,3.0,79,0.00,,,0.00,weatherlink.com 1.10,2013-09-11 07:38:00,
2013-09-11 02:53:00,69.3,63.0,29.80,ESE,120,1.0,4.0,79,0.00,,,0.00,weatherlink.com 1.10,2013-09-11 07:53:00,
2013-09-11 03:08:00,69.2,62.0,29.80,SE,142,0.0,10.0,79,0.00,,,0.00,weatherlink.com 1.10,2013-09-11 08:08:00,
2013-09-11 03:23:00,69.0,63.0,29.80,SE,132,4.0,7.0,80,0.00,,,0.00,weatherlink.com 1.10,2013-09-11 08:23:00,
2013-09-11 03:38:00,69.0,63.0,29.80,East,101,3.0,7.0,80,0.00,,,0.00,weatherlink.com 1.10,2013-09-11 08:38:00,
2013-09-11 03:53:00,68.8,63.0,29.80,ESE,111,1.0,4.0,81,0.00,,,0.00,weatherlink.com 1.10,2013-09-11 08:53:00,
2013-09-11 04:08:00,68.8,63.0,29.79,ESE,107,4.0,6.0,81,0.00,,,0.00,weatherlink.com 1.10,2013-09-11 09:08:00,
2013-09-11 04:23:00,68.9,63.0,29.79,ESE,119,2.0,5.0,81,0.00,,,0.00,weatherlink.com 1.10,2013-09-11 09:23:00,
2013-09-11 04:38:00,68.8,63.0,29.79,ESE,115,1.0,8.0,81,0.00,,,0.00,weatherlink.com 1.10,2013-09-11 09:38:00,
2013-09-11 04:53:00,68.7,63.0,29.79,ESE,107,1.0,7.0,82,0.00,,,0.00,weatherlink.com 1.10,2013-09-11 09:53:00,
2013-09-11 05:08:00,68.5,63.0,29.79,ESE,112,0.0,5.0,82,0.00,,,0.00,weatherlink.com 1.10,2013-09-11 10:08:00,
2013-09-11 05:23:00,68.5,63.0,29.79,ESE,111,0.0,5.0,82,0.00,,,0.00,weatherlink.com 1.10,2013-09-11 10:23:00,
2013-09-11 05:38:00,68.5,63.0,29.80,ESE,109,0.0,2.0,81,0.00,,,0.00,weatherlink.com 1.10,2013-09-11 10:38:00,
2013-09-11 05:53:00,68.2,63.0,29.80,ESE,109,0.0,2.0,82,0.00,,,0.00,weatherlink.com 1.10,2013-09-11 10:53:00,
2013-09-11 06:08:00,68.1,62.0,29.80,ESE,108,0.0,1.0,82,0.00,,,0.00,weatherlink.com 1.10,2013-09-11 11:08:00,
2013-09-11 06:23:00,68.1,63.0,29.81,ESE,104,3.0,5.0,83,0.00,,,0.00,weatherlink.com 1.10,2013-09-11 11:23:00,
2013-09-11 06:39:00,68.1,62.0,29.81,SE,125,0.0,5.0,82,0.00,,,0.00,weatherlink.com 1.10,2013-09-11 11:39:00,
2013-09-11 06:54:00,68.0,62.0,29.81,ESE,115,4.0,5.0,82,0.00,,,0.00,weatherlink.com 1.10,2013-09-11 11:54:00,
2013-09-11 07:09:00,67.8,63.0,29.81,ESE,117,2.0,4.0,83,0.00,,,0.00,weatherlink.com 1.10,2013-09-11 12:09:00,
2013-09-11 07:24:00,67.6,63.0,29.81,ESE,121,3.0,6.0,84,0.00,,,0.00,weatherlink.com 1.10,2013-09-11 12:24:00,
2013-09-11 07:39:00,67.6,63.0,29.81,ESE,123,0.0,5.0,84,0.00,,,0.00,weatherlink.com 1.10,2013-09-11 12:39:00,
2013-09-11 07:54:00,67.7,63.0,29.82,SE,138,2.0,5.0,84,0.00,,,0.00,weatherlink.com 1.10,2013-09-11 12:54:00,
2013-09-11 08:09:00,68.1,63.0,29.82,SE,136,2.0,7.0,83,0.00,,,0.00,weatherlink.com 1.10,2013-09-11 13:09:00,
2013-09-11 08:24:00,68.2,63.0,29.82,ESE,103,2.0,7.0,83,0.00,,,0.00,weatherlink.com 1.10,2013-09-11 13:24:00,
2013-09-11 08:39:00,68.4,63.0,29.83,ESE,115,1.0,7.0,82,0.00,,,0.00,weatherlink.com 1.10,2013-09-11 13:39:00,
2013-09-11 08:54:00,68.7,63.0,29.83,ESE,123,1.0,4.0,81,0.00,,,0.00,weatherlink.com 1.10,2013-09-11 13:54:00,
2013-09-11 09:09:00,69.0,63.0,29.83,SE,140,0.0,8.0,80,0.00,,,0.00,weatherlink.com 1.10,2013-09-11 14:09:00,
2013-09-11 09:24:00,69.7,63.0,29.83,ESE,114,4.0,10.0,79,0.00,,,0.00,weatherlink.com 1.10,2013-09-11 14:24:00,
2013-09-11 16:26:00,79.0,62.0,29.77,ESE,105,9.0,16.0,57,0.00,,,0.00,weatherlink.com 1.10,2013-09-11 21:26:00,
2013-09-11 16:39:00,78.4,62.0,29.77,ESE,115,9.0,15.0,57,0.00,,,0.00,weatherlink.com 1.10,2013-09-11 21:39:00,
2013-09-11 16:54:00,78.4,62.0,29.78,ESE,105,3.0,13.0,58,0.00,,,0.00,weatherlink.com 1.10,2013-09-11 21:54:00,
2013-09-11 17:09:00,78.6,62.0,29.77,ESE,119,4.0,13.0,58,0.00,,,0.00,weatherlink.com 1.10,2013-09-11 22:09:00,
2013-09-11 17:24:00,78.7,63.0,29.77,East,101,3.0,15.0,58,0.00,,,0.00,weatherlink.com 1.10,2013-09-11 22:24:00,
2013-09-11 17:39:00,78.8,63.0,29.76,SE,124,16.0,18.0,58,0.00,,,0.00,weatherlink.com 1.10,2013-09-11 22:39:00,
2013-09-11 17:55:00,78.7,63.0,29.76,ESE,113,13.0,18.0,58,0.00,,,0.00,weatherlink.com 1.10,2013-09-11 22:55:00,
2013-09-11 18:10:00,77.8,63.0,29.76,ESE,116,12.0,24.0,60,0.00,,,0.00,weatherlink.com 1.10,2013-09-11 23:10:00,
2013-09-11 18:25:00,77.9,63.0,29.76,ENE,69,8.0,19.0,60,0.00,,,0.00,weatherlink.com 1.10,2013-09-11 23:25:00,
2013-09-11 18:40:00,77.8,63.0,29.76,SE,134,10.0,19.0,60,0.00,,,0.00,weatherlink.com 1.10,2013-09-11 23:40:00,
2013-09-11 18:55:00,77.2,63.0,29.77,ESE,103,15.0,22.0,61,0.00,,,0.00,weatherlink.com 1.10,2013-09-11 23:55:00,
2013-09-11 19:10:00,75.5,62.0,29.77,SE,126,13.0,21.0,64,0.00,,,0.00,weatherlink.com 1.10,2013-09-12 00:10:00,
2013-09-11 19:25:00,74.9,63.0,29.77,ESE,110,16.0,22.0,66,0.00,,,0.00,weatherlink.com 1.10,2013-09-12 00:25:00,
2013-09-11 19:40:00,74.2,63.0,29.77,East,93,8.0,19.0,67,0.00,,,0.00,weatherlink.com 1.10,2013-09-12 00:40:00,
2013-09-11 19:55:00,73.3,63.0,29.78,ESE,110,16.0,16.0,69,0.00,,,0.00,weatherlink.com 1.10,2013-09-12 00:55:00,
2013-09-11 20:10:00,72.8,62.0,29.78,ESE,123,15.0,21.0,69,0.00,,,0.00,weatherlink.com 1.10,2013-09-12 01:10:00,
2013-09-11 20:25:00,72.3,62.0,29.78,ESE,121,11.0,21.0,69,0.00,,,0.00,weatherlink.com 1.10,2013-09-12 01:25:00,
2013-09-11 20:40:00,71.9,62.0,29.78,ESE,110,14.0,22.0,70,0.00,,,0.00,weatherlink.com 1.10,2013-09-12 01:40:00,
2013-09-11 20:55:00,71.5,61.0,29.79,ESE,119,10.0,17.0,70,0.00,,,0.00,weatherlink.com 1.10,2013-09-12 01:55:00,
2013-09-11 21:10:00,71.2,62.0,29.80,ESE,111,4.0,15.0,72,0.00,,,0.00,weatherlink.com 1.10,2013-09-12 02:10:00,
2013-09-11 21:25:00,71.0,62.0,29.80,SSE,157,5.0,14.0,73,0.00,,,0.00,weatherlink.com 1.10,2013-09-12 02:25:00,
2013-09-11 21:40:00,70.8,62.0,29.80,ESE,109,12.0,17.0,74,0.00,,,0.00,weatherlink.com 1.10,2013-09-12 02:40:00,
2013-09-11 21:55:00,70.5,61.0,29.81,East,98,9.0,22.0,72,0.00,,,0.00,weatherlink.com 1.10,2013-09-12 02:55:00,
2013-09-11 22:10:00,70.3,61.0,29.81,East,93,6.0,15.0,73,0.00,,,0.00,weatherlink.com 1.10,2013-09-12 03:10:00,
2013-09-11 22:25:00,69.9,61.0,29.82,ESE,122,0.0,11.0,74,0.00,,,0.00,weatherlink.com 1.10,2013-09-12 03:25:00,
2013-09-11 22:40:00,69.8,62.0,29.82,ESE,108,5.0,15.0,75,0.00,,,0.00,weatherlink.com 1.10,2013-09-12 03:40:00,
2013-09-11 22:55:00,69.7,61.0,29.83,ESE,116,1.0,10.0,75,0.00,,,0.00,weatherlink.com 1.10,2013-09-12 03:55:00,
2013-09-11 23:10:00,69.8,62.0,29.83,ESE,109,5.0,10.0,75,0.00,,,0.00,weatherlink.com 1.10,2013-09-12 04:10:00,
2013-09-11 23:25:00,69.9,62.0,29.83,SE,130,0.0,12.0,75,0.00,,,0.00,weatherlink.com 1.10,2013-09-12 04:25:00,
2013-09-11 23:40:00,69.9,62.0,29.82,ESE,111,4.0,14.0,75,0.00,,,0.00,weatherlink.com 1.10,2013-09-12 04:40:00,
2013-09-11 23:55:00,69.7,61.0,29.82,SSE,153,2.0,12.0,75,0.00,,,0.00,weatherlink.com 1.10,2013-09-12 04:55:00,